Flag for Austria Weather past 2 weeks in Bruck an der Leitha, Lower Austria, Austria

Now
62 °F

Scattered clouds.


Feels Like: 62 °F
Forecast: 51 / 72 °F
Wind: 5 mph from Northwest

Location: Wien / Schwechat-Flughafen

Current Time: Aug 27, 2014 at 7:44:13 PM

Latest Report: Aug 27, 2014 at 7:00 PM


Visibility: 19 mi

Pressure: 29.99 "Hg

Humidity: 65%

Dew point: 50 °F

Location of Bruck an der LeithaLocation

Historic Weather in Bruck an der Leitha — Graph

°F

Bruck an der Leitha temperature yesterday

Maximum temperature yesterday: 72 °F (at 6:00 PM)
Minimum temperature yesterday: 55 °F (at 7:00 AM)
Average temperature yesterday: 62 °F

Past Weeks' High & Low Weather Summary

 TemperatureHumidityPressure
High77 °F (Aug 18, 4:00 PM)99% (Aug 27, 6:00 AM)30.15 "Hg (Aug 27, 6:00 AM)
Low48 °F (Aug 25, 5:00 AM)37% (Aug 15, 2:00 PM)29.65 "Hg (Aug 13, 10:00 PM)
Average63 °F74%29.95 "Hg
* Reported Aug 12 6:00 PM — Aug 27 6:00 PM, Bruck an der Leitha, Weather by CustomWeather, © 2014

Note: Actual official high and low records may vary slightly from our data, if they occured in-between our weather recording intervals... More about our weather records

Advertising

Bruck an der Leitha weather history for previous 24 hours

 ConditionsComfort  
Time TempWeatherWind HumidityBarometerVisibility
6:00 PM
Aug 27
60 °FScattered clouds.5 mph67%29.98 "Hg17 mi
5:00 PM62 °FPartly sunny.8 mph62%29.96 "Hg19 mi
4:00 PM60 °FOvercast.9 mph78%29.95 "Hg16 mi
3:00 PM59 °FRain showers. Overcast.9 mph82%29.92 "Hg6 mi
2:00 PM62 °FOvercast.7 mph74%29.90 "Hg19 mi
1:00 PM64 °FOvercast.12 mph72%29.87 "Hg19 mi
11:00 AM67 °FOvercast.8 mph67%29.79 "Hg19 mi
10:00 AM64 °FOvercast.N/A84%29.79 "Hg25 mi
9:00 AM62 °FPartly sunny.N/A87%29.79 "Hg22 mi
8:00 AM61 °FPartly sunny.N/A90%29.77 "Hg25 mi
7:00 AM58 °FPartly sunny.N/A97%29.76 "Hg6 mi
6:00 AM58 °FPassing clouds.N/A99%29.74 "Hg3 mi
5:00 AM60 °FOvercast.N/A98%29.74 "Hg5 mi
4:00 AM60 °FOvercast.N/A97%29.75 "Hg7 mi
3:00 AM62 °FOvercast.5 mph93%29.75 "Hg9 mi
2:00 AM60 °FOvercast.N/A96%29.74 "Hg7 mi
1:00 AM59 °FPassing clouds.N/A96%29.77 "Hg14 mi
12:00 AM60 °FPassing clouds.N/A97%29.76 "Hg9 mi
11:00 PM
Aug 26
61 °FRain showers. Overcast.N/A94%29.75 "Hg12 mi
10:00 PM63 °FPassing clouds.N/A88%29.77 "Hg28 mi
9:00 PM65 °FPassing clouds.5 mph85%29.77 "Hg19 mi
8:00 PM65 °FPassing clouds.N/A85%29.75 "Hg25 mi
7:00 PM69 °FRain showers. Partly sunny.3 mph71%29.75 "Hg9 mi
Weather by CustomWeather, © 2014

See weather overviewHow to use our weather pages